This demonstration page uses our WeatherBlox Daily Observations layout. Learn more.

Left ArrowRight Arrow

Hourly Observations for January 12, 2017

Temp ( °F °C ) Dew Point ( °F °C ) Humidity (%) Winds ( mph kmh ) Pressure ( in mb ) Visibility ( mi km ) Precip ( " mm )
12:14 am 00:14 Mostly Cloudy 10 -12 5 -15 79 79 N 16 26 30.12 1020 10 16 0.00 0.00
12:33 am 00:33 Mostly Cloudy with Light Snow 11 -11.7 6 -14.4 81 81 NNE 14 22 30.15 1021 5 8 0.00 0.03
12:43 am 00:43 Mostly Cloudy 10 -12.2 4 -15.6 76 76 N 13 20 30.18 1022 9 14 0.00 0.03
12:51 am 00:51 Partly Cloudy 10 -12 3 -16 72 72 N 12 19 30.15 1021 10 16 0.00 0.03
12:53 am 00:53 Partly Cloudy 10 -12.2 4 -15.6 76 76 N 12 19 30.08 1019 9 14 0.00 0.03
1:01 am 01:01 Mostly Cloudy with Light Snow 10 -12.2 5 -15 80 80 N 10 17 30.21 1023 5 8 0.00 0.03
1:11 am 01:11 Partly Cloudy 10 -12.2 5 -15 80 80 N 13 20 30.21 1023 9 14 0.00 0.03
1:53 am 01:53 Clear 9 -12.8 3 -16.1 77 77 NNE 10 17 30.11 1020 10 16 0.00 0.03
2:53 am 02:53 Clear 9 -12.8 3 -16.1 77 77 N 8 13 30.14 1021 10 16 0.00 0.00
3:53 am 03:53 Clear 8 -13.3 2 -16.7 76 76 N 7 11 30.14 1021 10 16 0.00 0.00
4:53 am 04:53 Clear 7 -13.9 2 -16.7 80 80 N 5 7 30.17 1022 10 16 0.00 0.00
5:53 am 05:53 Clear 6 -14.4 2 -16.7 83 83 NNW 3 6 30.20 1023 10 16 0.00 0.00
6:53 am 06:53 Clear 7 -13.9 2 -16.7 80 80 NNW 6 9 30.25 1024 10 16 0.00 0.00
7:53 am 07:53 Clear 7 -13.9 2 -16.7 80 80 NNW 5 7 30.28 1026 10 16 0.00 0.00
8:53 am 08:53 Sunny 10 -12.2 4 -15.6 76 76 NW 7 11 30.34 1027 10 16 0.00 0.00
9:53 am 09:53 Mostly Cloudy 13 -10.6 4 -15.6 67 67 NW 9 15 30.38 1029 10 16 0.00 0.00
10:11 am 10:11 Mostly Cloudy 13 -10.6 4 -15.6 67 67 NNW 9 15 30.45 1031 10 16 0.00 0.00
10:53 am 10:53 Mostly Sunny 15 -9.4 5 -15 64 64 NNW 13 20 30.42 1030 10 16 0.00 0.00
11:53 am 11:53 Cloudy 19 -7.2 6 -14.4 57 57 NNW 15 24 30.44 1031 10 16 0.00 0.00
12:16 pm 12:16 Partly Cloudy 19 -7 7 -14 58 58 NNW 13 20 30.48 1032 10 16 0.00 0.00
12:53 pm 12:53 Sunny 20 -6.7 7 -13.9 57 57 N 14 22 30.41 1030 10 16 0.00 0.00
1:53 pm 13:53 Sunny 21 -6.1 7 -13.9 54 54 N 12 19 30.44 1031 10 16 0.00 0.00
2:53 pm 14:53 Sunny 21 -6.1 8 -13.3 57 57 N 9 15 30.45 1031 10 16 0.00 0.00
3:53 pm 15:53 Sunny 21 -6.1 8 -13.3 57 57 N 13 20 30.48 1032 10 16 0.00 0.00
4:53 pm 16:53 Sunny 21 -6.1 9 -12.8 59 59 NNE 8 13 30.50 1033 10 16 0.00 0.00
5:53 pm 17:53 Clear 19 -7.2 9 -12.8 65 65 NE 5 7 30.53 1034 10 16 0.00 0.00
6:53 pm 18:53 Clear 19 -7.2 10 -12.2 68 68 NE 7 11 30.55 1035 10 16 0.00 0.00
7:53 pm 19:53 Partly Cloudy 20 -6.7 10 -12.2 65 65 ENE 6 9 30.56 1035 10 16 0.00 0.00
8:53 pm 20:53 Clear 18 -7.8 10 -12.2 71 71 ENE 5 7 30.56 1035 10 16 0.00 0.00
9:53 pm 21:53 Clear 19 -7 10 -12 68 68 ENE 6 9 30.62 1037 10 16 0.00 0.00
10:53 pm 22:53 Clear 19 -7 10 -12 68 68 NE 7 11 30.62 1037 10 16 0.00 0.00
11:53 pm 23:53 Mostly Clear 19 -7.2 9 -12.8 65 65 ENE 9 15 30.58 1035 10 16 0.00 0.00

Powered by AerisWeather